User: anonymous   Login
Location: Unspecified
(0.0000°N, 0.0000°E)
Time: 14:33:51
(UTC+00:00)
Language:

NOSS 2-3 (E) - Orbit

View from above orbital plane
View from above orbital plane
View from above satellite
View from above satellite

Ground track
Ground track

The orbit data is extracted from the following two-line orbital elements,

1 23936U 96029E   18260.10939248 0.00000000  00000-0  00000-0 0    05
2 23936  63.3683 318.7914 0644000  16.3231 343.6769 13.40894233    02
Epoch (UTC): 17 September 2018 02:37:31
Eccentricity: 0.0644000
inclination: 63.3683°
perigee height: 624 km
apogee height: 1588 km
right ascension of ascending node: 318.7914°
argument of perigee: 16.3231°
revolutions per day: 13.40894233
mean anomaly at epoch: 343.6769°
orbit number at epoch: 0

The dashed part of the orbit path shows where the satellite is in the earth's shadow,  

DLR